Acerra, Italy

8:57 AM CET on January 16, 2018 (GMT +0100)
Acerra

Weather History for 16289 - August, 2014

Change the Weather History Date:

Saturday, August 30, 2014

  Actual Average Record
Temperature  
Mean Temperature 80 °F -  
Max Temperature 88 °F 79 °F - ()
Min Temperature 71 °F 60 °F - ()
Cooling Degree Days 14    
Growing Degree Days 30 (Base 50)    
Moisture  
Dew Point 66 °F    
Average Humidity 63    
Maximum Humidity 78    
Minimum Humidity 43    
Precipitation  
Precipitation 0.00 in 0.11 in - ()
Sea Level Pressure  
Sea Level Pressure 29.99 in    
Wind  
Wind Speed 3 mph ()    
Max Wind Speed 12 mph    
Max Gust Speed -    
Visibility 6.2 miles    
Events      
T = Trace of Precipitation, MM = Missing Value Source: Averaged Metar Reports

Daily Weather History Graph

Daily Weather History Graph

Search for Another Location

Airport or City:

Trip Planner

Search our weather history database for the weather conditions in past years. The results will help you decide how hot, cold, wet, or windy it might be!

Date:

Astronomy

Aug. 30, 2014 Rise Set
Actual Time 6:27 AM CEST 7:38 PM CEST
Civil Twilight 5:59 AM CEST 8:07 PM CEST
Nautical Twilight 5:25 AM CEST 8:40 PM CEST
Astronomical Twilight 4:49 AM CEST 9:16 PM CEST
Moon 11:00 AM CEST (8/30) 9:59 PM CEST (8/30)
Length of Visible Light 14h 07m
Length of Day
13h 11m
Waxing Crescent, 20% of the Moon is Illuminated
Aug 30
Waxing Crescent
Sep 2
First Quarter
Sep 9
Full
Sep 16
Last Quarter
Sep 24
New

Hourly Weather History & Observations

Time (CEST) Temp. Heat Index Dew Point Humidity Pressure Visibility Wind Dir Wind Speed Gust Speed Precip Events Conditions
12:20 AM 77.0 °F - 66.2 °F 69% 29.98 in - Variable 1.2 mph - N/A   Clear
12:50 AM 75.2 °F - 66.2 °F 73% 29.98 in - NE 2.3 mph - N/A   Clear
1:20 AM 75.2 °F - 66.2 °F 73% 29.98 in - Variable 1.2 mph - N/A   Clear
1:50 AM 75.2 °F - 66.2 °F 73% 29.98 in - Calm Calm - N/A   Clear
2:00 AM 75 °F - 66 °F 68% 29.99 in 37 mi Calm Calm - -  
2:20 AM 73.4 °F - 66.2 °F 78% 29.98 in - Calm Calm - N/A   Clear
2:50 AM 73.4 °F - 66.2 °F 78% 29.98 in - West 2.3 mph - N/A   Clear
3:20 AM 73.4 °F - 64.4 °F 73% 29.98 in - NW 3.5 mph - N/A   Clear
3:50 AM 73.4 °F - 66.2 °F 78% 29.98 in - NNE 2.3 mph - N/A   Clear
4:20 AM 73.4 °F - 66.2 °F 78% 29.98 in - NE 3.5 mph - N/A   Clear
4:50 AM 73.4 °F - 66.2 °F 78% 29.98 in - NNE 2.3 mph - N/A   Clear
5:20 AM 73.4 °F - 64.4 °F 73% 29.98 in - North 1.2 mph - N/A   Clear
5:50 AM 73.4 °F - 66.2 °F 78% 29.98 in - Calm Calm - N/A   Clear
6:20 AM 71.6 °F - 64.4 °F 78% 29.98 in - Calm Calm - N/A   Clear
6:50 AM 73.4 °F - 64.4 °F 73% 30.01 in 6.2 mi West 1.2 mph - N/A   Partly Cloudy
7:20 AM 75.2 °F - 66.2 °F 73% 30.01 in - Variable 1.2 mph - N/A   Clear
7:50 AM 77.0 °F - 66.2 °F 69% 30.01 in - Variable 1.2 mph - N/A   Clear
8:00 AM 78 °F - 67 °F 60% 30.00 in 37 mi ESE 1.2 mph - -  
8:20 AM 78.8 °F - 66.2 °F 65% 30.01 in - Variable 2.3 mph - N/A   Clear
8:50 AM 80.6 °F 82.7 °F 66.2 °F 61% 30.01 in - Variable 2.3 mph - N/A   Clear
9:20 AM 80.6 °F 82.7 °F 66.2 °F 61% 30.01 in - Variable 2.3 mph - N/A   Clear
9:50 AM 82.4 °F 84.6 °F 66.2 °F 58% 30.01 in - SSW 3.5 mph - N/A   Clear
10:20 AM 82.4 °F 85.4 °F 68.0 °F 62% 30.01 in - South 4.6 mph - N/A   Clear
10:50 AM 84.2 °F 88.4 °F 69.8 °F 62% 30.01 in 6.2 mi South 5.8 mph - N/A   Partly Cloudy
11:00 AM 83 °F - 68 °F 53% 30.02 in 37 mi South 6.9 mph - -   Scattered Clouds
11:20 AM 84.2 °F 87.3 °F 68.0 °F 58% 30.01 in 6.2 mi South 5.8 mph - N/A   Partly Cloudy
11:50 AM 86.0 °F 89.4 °F 68.0 °F 55% 30.01 in 6.2 mi South 8.1 mph - N/A   Partly Cloudy
12:20 PM 84.2 °F 87.3 °F 68.0 °F 58% 30.01 in 6.2 mi South 9.2 mph - N/A   Scattered Clouds
12:50 PM 84.2 °F 87.3 °F 68.0 °F 58% 30.01 in 6.2 mi SSW 9.2 mph - N/A   Scattered Clouds
1:20 PM 84.2 °F 87.3 °F 68.0 °F 58% 30.01 in 6.2 mi South 10.4 mph - N/A   Scattered Clouds
1:50 PM 84.2 °F 88.4 °F 69.8 °F 62% 29.98 in 6.2 mi South 8.1 mph - N/A   Scattered Clouds
2:00 PM 86 °F - 69 °F 48% 29.99 in 37 mi South 9.2 mph - -   Scattered Clouds
2:20 PM 84.2 °F 87.3 °F 68.0 °F 58% 29.98 in 6.2 mi South 9.2 mph - N/A   Partly Cloudy
2:50 PM 86.0 °F 90.4 °F 69.8 °F 58% 29.98 in 6.2 mi South 9.2 mph - N/A   Partly Cloudy
3:20 PM 86.0 °F 89.4 °F 68.0 °F 55% 29.98 in 6.2 mi South 9.2 mph - N/A   Partly Cloudy
3:50 PM 87.8 °F 89.4 °F 64.4 °F 46% 29.95 in 6.2 mi Variable 6.9 mph - N/A   Partly Cloudy
4:20 PM 87.8 °F 89.4 °F 64.4 °F 46% 29.95 in 6.2 mi West 8.1 mph - N/A   Partly Cloudy
4:50 PM 86.0 °F 86.6 °F 62.6 °F 45% 29.95 in 6.2 mi West 9.2 mph - N/A   Partly Cloudy
5:20 PM 86.0 °F 86.1 °F 60.8 °F 43% 29.95 in 6.2 mi West 11.5 mph - N/A   Partly Cloudy
5:50 PM 84.2 °F 85.6 °F 64.4 °F 51% 29.98 in 6.2 mi WNW 9.2 mph - N/A   Partly Cloudy
6:20 PM 84.2 °F 85.6 °F 64.4 °F 51% 29.95 in 6.2 mi WNW 8.1 mph - N/A   Partly Cloudy
6:50 PM 82.4 °F 83.9 °F 64.4 °F 54% 29.98 in 6.2 mi WNW 8.1 mph - N/A   Scattered Clouds
7:20 PM 80.6 °F 82.7 °F 66.2 °F 61% 29.98 in 6.2 mi West 6.9 mph - N/A   Scattered Clouds
7:50 PM 80.6 °F 82.7 °F 66.2 °F 61% 29.98 in 6.2 mi WNW 3.5 mph - N/A   Partly Cloudy
8:00 PM 80 °F - 66 °F 54% 29.98 in 37 mi WNW 3.5 mph - -   Scattered Clouds
8:20 PM 80.6 °F 82.7 °F 66.2 °F 61% 29.98 in 6.2 mi Variable 2.3 mph - N/A   Partly Cloudy
8:50 PM 80.6 °F 82.7 °F 66.2 °F 61% 29.98 in - Variable 2.3 mph - N/A   Clear
9:20 PM 78.8 °F - 66.2 °F 65% 29.98 in - NNW 3.5 mph - N/A   Clear
9:50 PM 78.8 °F - 66.2 °F 65% 29.98 in - Calm Calm - N/A   Clear
10:20 PM 77.0 °F - 64.4 °F 65% 29.98 in - Calm Calm - N/A   Clear
10:50 PM 77.0 °F - 66.2 °F 69% 29.98 in - SW 2.3 mph - N/A   Clear
11:00 PM 77 °F - 65 °F 59% 29.98 in 37 mi SW 2.3 mph - -  
11:20 PM 75.2 °F - 64.4 °F 69% 29.98 in - West 2.3 mph - N/A   Clear
11:50 PM 77.0 °F - 62.6 °F 61% 29.98 in - Variable 2.3 mph - N/A   Clear